| time (UTC) | temp F | wind direction | speed MPH | gust MPH | rain 1hr in | rain 24hr in | rain mn in | humidity % | barometer mb |
| 20260903124946 | 60 | 127 | 5.0 | 14.0 | 0.17 | 0.21 | 0.20 | 96 | 1018.1 |
| 20260903123945 | 61 | 122 | 4.0 | 8.0 | 0.16 | 0.19 | 0.19 | 96 | 1018.1 |
| 20260903122946 | 61 | 168 | 3.0 | 6.0 | 0.13 | 0.16 | 0.15 | 96 | 1018.5 |
| 20260903122846 | 61 | 102 | 2.0 | 6.0 | 0.12 | 0.15 | 0.15 | 96 | 1018.5 |
| 20260903121846 | 61 | 157 | 5.0 | 10.0 | 0.08 | 0.10 | 0.09 | 96 | 1018.6 |
| 20260903120945 | 61 | 200 | 3.0 | 4.0 | 0.05 | 0.07 | 0.06 | 95 | 1018.9 |
| 20260903114946 | 61 | 168 | 6.0 | 12.0 | 0.03 | 0.04 | 0.04 | 96 | 1018.9 |
| 20260903114044 | 60 | 175 | 3.0 | 8.0 | 0.02 | 0.03 | 0.03 | 96 | 1019.0 |
| 20260903113945 | 60 | 169 | 5.0 | 11.0 | 0.02 | 0.03 | 0.03 | 96 | 1019.0 |
| 20260903112947 | 60 | 184 | 4.0 | 7.0 | 0.03 | 0.03 | 0.03 | 96 | 1019.0 |
| 20260903112045 | 60 | 164 | 4.0 | 7.0 | 0.02 | 0.02 | 0.02 | 96 | 1019.1 |
| 20260903111046 | 60 | 148 | 7.0 | 14.0 | 0.02 | 0.02 | 0.02 | 96 | 1019.0 |
| 20260903110045 | 60 | 147 | 4.0 | 8.0 | 0.01 | 0.01 | 0.01 | 96 | 1019.0 |
| 20260903105143 | 60 | 155 | 5.0 | 10.0 | 0.01 | 0.01 | 0.01 | 96 | 1019.1 |
| 20260903104145 | 60 | 150 | 7.0 | 13.0 | 0.01 | 0.01 | 0.01 | 96 | 1019.1 |
| 20260903102244 | 60 | 180 | 2.0 | 4.0 | 0.00 | 0.00 | 0.00 | 96 | 1019.1 |
| 20260903101245 | 60 | 146 | 4.0 | 7.0 | 0.00 | 0.00 | 0.00 | 95 | 1019.3 |
| 20260903100245 | 60 | 166 | 3.0 | 6.0 | 0.00 | 0.00 | 0.00 | 96 | 1019.2 |
| 20260903095246 | 60 | 176 | 2.0 | 4.0 | 0.00 | 0.00 | 0.00 | 96 | 1019.3 |
| 20260903094344 | 60 | 201 | 3.0 | 8.0 | 0.00 | 0.00 | 0.00 | 96 | 1019.2 |
| 20260903091346 | 60 | 190 | 4.0 | 7.0 | 0.00 | 0.00 | 0.00 | 96 | 1019.3 |
| 20260903091245 | 60 | 205 | 6.0 | 9.0 | 0.00 | 0.00 | 0.00 | 96 | 1019.3 |
| 20260903090245 | 60 | 197 | 3.0 | 7.0 | 0.00 | 0.00 | 0.00 | 96 | 1019.5 |
| 20260903085247 | 60 | 186 | 4.0 | 7.0 | 0.00 | 0.00 | 0.00 | 96 | 1019.4 |
| 20260903084345 | 59 | 148 | 2.0 | 4.0 | 0.00 | 0.00 | 0.00 | 96 | 1019.6 |
| 20260903083346 | 59 | 295 | 0.0 | 3.0 | 0.00 | 0.00 | 0.00 | 96 | 1019.8 |
| 20260903081346 | 58 | 103 | 2.0 | 4.0 | 0.00 | 0.00 | 0.00 | 96 | 1019.6 |
| 20260903080347 | 58 | 247 | 0.0 | 1.0 | 0.00 | 0.00 | 0.00 | 96 | 1019.8 |
| 20260903075345 | 58 | 45 | 1.0 | 1.0 | 0.00 | 0.00 | 0.00 | 96 | 1020.1 |
| 20260903074347 | 58 | 90 | 1.0 | 2.0 | 0.00 | 0.00 | 0.00 | 96 | 1020.2 |
| 20260903074243 | 58 | 90 | 3.0 | 5.0 | 0.00 | 0.00 | 0.00 | 96 | 1020.3 |
| 20260903073247 | 58 | 90 | 3.0 | 4.0 | 0.00 | 0.00 | 0.00 | 96 | 1020.7 |
| 20260903072345 | 58 | 96 | 2.0 | 3.0 | 0.00 | 0.00 | 0.00 | 96 | 1020.9 |
| 20260903072244 | 58 | 112 | 2.0 | 2.0 | 0.00 | 0.00 | 0.00 | 96 | 1020.9 |
| 20260903071246 | 58 | 132 | 1.0 | 4.0 | 0.00 | 0.00 | 0.00 | 96 | 1021.2 |
| 20260903070246 | 58 | 128 | 4.0 | 5.0 | 0.00 | 0.00 | 0.00 | 95 | 1021.0 |
| 20260903070147 | 58 | 99 | 5.0 | 7.0 | 0.00 | 0.00 | 0.00 | 96 | 1021.1 |
| 20260903070046 | 58 | 93 | 5.0 | 6.0 | 0.00 | 0.00 | 0.00 | 96 | 1021.2 |
| 20260903065045 | 58 | 115 | 5.0 | 7.0 | 0.00 | 0.00 | 0.00 | 95 | 1021.2 |
| 20260903064046 | 58 | 129 | 3.0 | 5.0 | 0.00 | 0.00 | 0.00 | 96 | 1021.3 |
| 20260903063045 | 58 | 111 | 4.0 | 5.0 | 0.00 | 0.00 | 0.00 | 96 | 1021.5 |
| 20260903062143 | 58 | 117 | 3.0 | 4.0 | 0.00 | 0.00 | 0.00 | 96 | 1021.3 |
| 20260903061146 | 58 | 135 | 3.0 | 4.0 | 0.00 | 0.00 | 0.00 | 96 | 1021.4 |
| 20260903060245 | 58 | 105 | 3.0 | 4.0 | 0.00 | 0.00 | 0.00 | 95 | 1021.5 |
| 20260903055247 | 58 | 135 | 2.0 | 3.0 | 0.00 | 0.00 | 0.00 | 96 | 1021.8 |
| 20260903053344 | 58 | 135 | 2.0 | 3.0 | 0.00 | 0.00 | 0.00 | 95 | 1021.9 |
| 20260903050446 | 58 | 135 | 1.0 | 2.0 | 0.00 | 0.00 | 0.00 | 95 | 1021.9 |
| 20260903044544 | 58 | 202 | 0.0 | 2.0 | 0.00 | 0.00 | 0.00 | 95 | 1022.1 |
| 20260903043546 | 58 | 135 | 2.0 | 3.0 | 0.00 | 0.00 | 0.00 | 95 | 1022.1 |
| 20260903042644 | 58 | 135 | 0.0 | 1.0 | 0.00 | 0.00 | 0.00 | 95 | 1022.1 |
| 20260903041647 | 58 | 180 | 1.0 | 3.0 | 0.00 | 0.00 | 0.00 | 95 | 1022.2 |
| 20260903040646 | 58 | 135 | 3.0 | 4.0 | 0.00 | 0.00 | 0.00 | 94 | 1022.4 |
| 20260903035728 | 58 | 135 | 2.0 | 4.0 | 0.00 | 0.00 | 0.00 | 95 | 1022.4 |
| 20260903034727 | 58 | 135 | 2.0 | 3.0 | 0.00 | 0.00 | 0.00 | 95 | 1022.4 |
| 20260903033826 | 58 | 195 | 3.0 | 4.0 | 0.00 | 0.00 | 0.00 | 95 | 1022.5 |
| 20260903032828 | 58 | 154 | 6.0 | 10.0 | 0.00 | 0.00 | 0.00 | 95 | 1022.3 |
| 20260903030827 | 58 | 191 | 2.0 | 5.0 | 0.00 | 0.00 | 0.00 | 95 | 1022.9 |
| 20260903025827 | 58 | 149 | 4.0 | 6.0 | 0.00 | 0.00 | 0.00 | 94 | 1022.8 |
| 20260903024828 | 58 | 171 | 4.0 | 5.0 | 0.00 | 0.00 | 0.00 | 93 | 1022.8 |
| 20260903023827 | 57 | 174 | 1.0 | 3.0 | 0.00 | 0.00 | 0.00 | 94 | 1022.9 |
| 20260903022827 | 57 | 150 | 0.0 | 2.0 | 0.00 | 0.00 | 0.00 | 94 | 1022.6 |
| 20260903022728 | 57 | 135 | 0.0 | 1.0 | 0.00 | 0.00 | 0.00 | 93 | 1022.7 |
| 20260903021728 | 57 | 131 | 4.0 | 8.0 | 0.00 | 0.00 | 0.00 | 94 | 1022.6 |
| 20260903020826 | 57 | 180 | 0.0 | 1.0 | 0.00 | 0.00 | 0.00 | 94 | 1022.8 |
| 20260903015829 | 57 | 167 | 1.0 | 4.0 | 0.00 | 0.00 | 0.00 | 94 | 1022.8 |
| 20260903014826 | 57 | 146 | 4.0 | 6.0 | 0.00 | 0.00 | 0.00 | 93 | 1022.8 |
| 20260903013828 | 58 | 166 | 2.0 | 5.0 | 0.00 | 0.00 | 0.00 | 93 | 1022.9 |
| 20260903012827 | 58 | 128 | 3.0 | 5.0 | 0.00 | 0.00 | 0.00 | 92 | 1022.9 |
| 20260903011828 | 58 | 162 | 1.0 | 4.0 | 0.00 | 0.00 | 0.00 | 92 | 1022.7 |
| 20260903010828 | 58 | 156 | 2.0 | 7.0 | 0.00 | 0.00 | 0.00 | 91 | 1022.7 |
| 20260903005827 | 58 | 146 | 3.0 | 5.0 | 0.00 | 0.00 | 0.00 | 92 | 1023.0 |
| 20260903004828 | 57 | 134 | 5.0 | 7.0 | 0.00 | 0.00 | 0.00 | 90 | 1023.1 |
| 20260903004726 | 57 | 142 | 4.0 | 8.0 | 0.00 | 0.00 | 0.00 | 91 | 1023.2 |
| 20260903003728 | 57 | 135 | 3.0 | 6.0 | 0.00 | 0.00 | 0.00 | 90 | 1023.2 |
| 20260903002729 | 57 | 138 | 4.0 | 6.0 | 0.00 | 0.00 | 0.00 | 89 | 1023.3 |
| 20260903001827 | 57 | 180 | 4.0 | 7.0 | 0.00 | 0.00 | 0.00 | 89 | 1023.1 |
| 20260903000827 | 57 | 153 | 4.0 | 6.0 | 0.00 | 0.00 | 0.00 | 89 | 1023.0 |
| 20260902235826 | 57 | 135 | 1.0 | 2.0 | 0.00 | 0.00 | 0.00 | 89 | 1023.0 |
| 20260902234827 | 57 | 156 | 2.0 | 4.0 | 0.00 | 0.00 | 0.00 | 89 | 1022.9 |
| 20260902234728 | 57 | 166 | 0.0 | 3.0 | 0.00 | 0.00 | 0.00 | 88 | 1022.9 |
| 20260902234628 | 57 | 135 | 0.0 | 0.0 | 0.00 | 0.00 | 0.00 | 88 | 1023.0 |
| 20260902233627 | 57 | 135 | 2.0 | 3.0 | 0.00 | 0.00 | 0.00 | 88 | 1023.0 |
| 20260902232627 | 57 | 135 | 2.0 | 3.0 | 0.00 | 0.00 | 0.00 | 88 | 1023.0 |
| 20260902232528 | 57 | 135 | 2.0 | 3.0 | 0.00 | 0.00 | 0.00 | 88 | 1023.0 |
| 20260902231625 | 57 | 157 | 2.0 | 3.0 | 0.00 | 0.00 | 0.00 | 88 | 1023.2 |
| 20260902230629 | 57 | 135 | 4.0 | 6.0 | 0.00 | 0.00 | 0.00 | 88 | 1023.4 |
| 20260902230527 | 57 | 135 | 2.0 | 4.0 | 0.00 | 0.00 | 0.00 | 88 | 1023.5 |
| 20260902225527 | 57 | 152 | 4.0 | 5.0 | 0.00 | 0.00 | 0.00 | 87 | 1023.5 |
| 20260902224527 | 58 | 152 | 4.0 | 5.0 | 0.00 | 0.00 | 0.00 | 85 | 1023.4 |
| 20260902223528 | 58 | 121 | 1.0 | 3.0 | 0.00 | 0.00 | 0.00 | 86 | 1023.7 |
| 20260902221626 | 58 | 124 | 6.0 | 9.0 | 0.00 | 0.00 | 0.00 | 84 | 1023.6 |
| 20260902220628 | 59 | 146 | 5.0 | 10.0 | 0.00 | 0.00 | 0.00 | 83 | 1023.6 |
| 20260902215627 | 59 | 125 | 5.0 | 9.0 | 0.00 | 0.00 | 0.00 | 82 | 1023.8 |
| 20260902214625 | 59 | 148 | 4.0 | 6.0 | 0.00 | 0.00 | 0.00 | 81 | 1023.9 |
| 20260902213626 | 60 | 128 | 3.0 | 6.0 | 0.00 | 0.00 | 0.00 | 80 | 1023.8 |
| 20260902212627 | 60 | 139 | 6.0 | 9.0 | 0.00 | 0.00 | 0.00 | 79 | 1023.8 |
| 20260902211626 | 60 | 129 | 2.0 | 5.0 | 0.00 | 0.00 | 0.00 | 79 | 1023.7 |
| 20260902211529 | 60 | 143 | 3.0 | 7.0 | 0.00 | 0.00 | 0.00 | 79 | 1023.8 |
| 20260902210527 | 61 | 125 | 5.0 | 7.0 | 0.00 | 0.00 | 0.00 | 78 | 1023.9 |
| 20260902205527 | 61 | 144 | 6.0 | 9.0 | 0.00 | 0.00 | 0.00 | 77 | 1023.9 |
| 20260902204529 | 61 | 125 | 5.0 | 7.0 | 0.00 | 0.00 | 0.00 | 77 | 1024.0 |
| 20260902203527 | 61 | 125 | 6.0 | 8.0 | 0.00 | 0.00 | 0.00 | 76 | 1024.1 |
| 20260902202626 | 62 | 126 | 7.0 | 11.0 | 0.00 | 0.00 | 0.00 | 76 | 1024.1 |
| 20260902201628 | 62 | 127 | 5.0 | 11.0 | 0.00 | 0.00 | 0.00 | 75 | 1024.2 |
| 20260902201542 | 62 | 141 | 6.0 | 8.0 | 0.00 | 0.00 | 0.00 | 75 | 1024.2 |
| 20260902200527 | 63 | 129 | 8.0 | 12.0 | 0.00 | 0.00 | 0.00 | 74 | 1024.1 |
| 20260902195528 | 63 | 118 | 6.0 | 9.0 | 0.00 | 0.00 | 0.00 | 73 | 1024.3 |
| 20260902195426 | 63 | 123 | 2.0 | 6.0 | 0.00 | 0.00 | 0.00 | 73 | 1024.4 |
| 20260902194427 | 63 | 121 | 5.0 | 8.0 | 0.00 | 0.00 | 0.00 | 73 | 1024.3 |
| 20260902192526 | 63 | 128 | 7.0 | 11.0 | 0.00 | 0.00 | 0.00 | 72 | 1024.3 |
| 20260902191527 | 64 | 128 | 5.0 | 8.0 | 0.00 | 0.00 | 0.00 | 70 | 1024.2 |
| 20260902190527 | 64 | 135 | 5.0 | 10.0 | 0.00 | 0.00 | 0.00 | 70 | 1024.0 |
| 20260902185527 | 65 | 106 | 5.0 | 8.0 | 0.00 | 0.00 | 0.00 | 69 | 1024.2 |
| 20260902184529 | 65 | 120 | 7.0 | 12.0 | 0.00 | 0.00 | 0.00 | 69 | 1024.0 |
| 20260902183626 | 65 | 115 | 8.0 | 15.0 | 0.00 | 0.00 | 0.00 | 69 | 1024.3 |
| 20260902181726 | 65 | 121 | 6.0 | 12.0 | 0.00 | 0.00 | 0.00 | 68 | 1024.2 |
| 20260902180825 | 65 | 107 | 5.0 | 9.0 | 0.00 | 0.00 | 0.00 | 69 | 1024.3 |
| 20260902174827 | 65 | 107 | 6.0 | 12.0 | 0.00 | 0.00 | 0.00 | 67 | 1024.6 |
| 20260902174728 | 65 | 110 | 7.0 | 15.0 | 0.00 | 0.00 | 0.00 | 66 | 1024.5 |
| 20260902173728 | 66 | 114 | 9.0 | 15.0 | 0.00 | 0.00 | 0.00 | 66 | 1024.7 |
| 20260902173627 | 66 | 115 | 7.0 | 12.0 | 0.00 | 0.00 | 0.00 | 65 | 1024.7 |
| 20260902172726 | 66 | 140 | 5.0 | 10.0 | 0.00 | 0.00 | 0.00 | 64 | 1024.7 |
| 20260902172626 | 66 | 117 | 7.0 | 12.0 | 0.00 | 0.00 | 0.00 | 63 | 1024.8 |
| 20260902171628 | 66 | 118 | 8.0 | 13.0 | 0.00 | 0.00 | 0.00 | 63 | 1024.8 |
| 20260902170726 | 67 | 77 | 2.0 | 7.0 | 0.00 | 0.00 | 0.00 | 64 | 1024.9 |
| 20260902164727 | 66 | 96 | 5.0 | 8.0 | 0.00 | 0.00 | 0.00 | 64 | 1024.8 |
| 20260902164627 | 66 | 105 | 7.0 | 10.0 | 0.00 | 0.00 | 0.00 | 64 | 1024.9 |
| 20260902162629 | 66 | 129 | 6.0 | 9.0 | 0.00 | 0.00 | 0.00 | 65 | 1025.0 |
| 20260902161627 | 66 | 88 | 8.0 | 12.0 | 0.00 | 0.00 | 0.00 | 66 | 1024.8 |
| 20260902155727 | 65 | 97 | 7.0 | 12.0 | 0.00 | 0.00 | 0.00 | 65 | 1024.9 |
| 20260902154825 | 66 | 85 | 9.0 | 14.0 | 0.00 | 0.00 | 0.00 | 64 | 1024.8 |
| 20260902153828 | 66 | 102 | 9.0 | 12.0 | 0.00 | 0.00 | 0.00 | 64 | 1024.8 |
| 20260902152925 | 66 | 97 | 8.0 | 11.0 | 0.00 | 0.00 | 0.00 | 64 | 1024.7 |
| 20260902152826 | 66 | 102 | 7.0 | 14.0 | 0.00 | 0.00 | 0.00 | 65 | 1024.7 |
| 20260902151925 | 65 | 102 | 7.0 | 11.0 | 0.00 | 0.00 | 0.00 | 65 | 1024.8 |
| 20260902145927 | 66 | 76 | 7.0 | 10.0 | 0.00 | 0.00 | 0.00 | 68 | 1025.0 |
| 20260902144927 | 65 | 105 | 4.0 | 11.0 | 0.00 | 0.00 | 0.00 | 69 | 1025.1 |
| 20260902141927 | 65 | 98 | 4.0 | 8.0 | 0.00 | 0.00 | 0.00 | 69 | 1025.1 |
| 20260902140926 | 65 | 118 | 5.0 | 8.0 | 0.00 | 0.00 | 0.00 | 70 | 1025.1 |
| 20260902135925 | 64 | 107 | 6.0 | 11.0 | 0.00 | 0.00 | 0.00 | 72 | 1024.9 |
| 20260902134927 | 64 | 87 | 5.0 | 7.0 | 0.00 | 0.00 | 0.00 | 74 | 1024.8 |
| 20260902134827 | 64 | 84 | 6.0 | 8.0 | 0.00 | 0.00 | 0.00 | 73 | 1024.7 |
| 20260902133829 | 63 | 83 | 5.0 | 7.0 | 0.00 | 0.00 | 0.00 | 75 | 1024.4 |
| 20260902132828 | 62 | 69 | 3.0 | 6.0 | 0.00 | 0.00 | 0.00 | 77 | 1024.5 |
| 20260902131827 | 62 | 90 | 3.0 | 6.0 | 0.00 | 0.00 | 0.00 | 77 | 1024.4 |
| 20260902130827 | 61 | 50 | 5.0 | 8.0 | 0.00 | 0.00 | 0.00 | 78 | 1024.3 |
| 20260902130725 | 61 | 82 | 5.0 | 7.0 | 0.00 | 0.00 | 0.00 | 77 | 1024.3 |
| 20260902125727 | 61 | 67 | 2.0 | 4.0 | 0.00 | 0.00 | 0.00 | 77 | 1024.5 |